Date,TemperatureHighF,TemperatureAvgF,TemperatureLowF,DewpointHighF,DewpointAvgF,DewpointLowF,HumidityHigh,HumidityAvg,HumidityLow,PressureMaxIn,PressureMinIn,WindSpeedMaxMPH,WindSpeedAvgMPH,GustSpeedMaxMPH,PrecipitationSumIn
2013-3-1,67,56,47,41,22,-7,53,30,1,29.62,29.53,0,0,0,0.00
2013-3-2,62,51,41,38,31,18,57,48,31,29.65,29.56,0,0,0,0.00
2013-3-3,56,44,34,34,23,-8,55,44,16,29.77,29.62,0,0,0,0.00
2013-3-4,71,48,30,36,17,-20,54,31,1,29.86,29.74,0,0,0,0.00
2013-3-5,80,59,37,49,22,-14,51,24,1,29.81,29.64,0,0,0,0.00
2013-3-6,72,60,48,39,25,3,54,28,1,29.76,29.54,8,1,8,0.00
2013-3-7,73,53,38,46,28,-8,57,41,1,29.84,29.75,4,1,4,0.00
2013-3-8,80,56,38,48,16,-14,52,20,1,29.85,29.74,6,0,6,0.00
2013-3-9,78,58,41,53,19,-11,51,21,1,29.86,29.77,8,1,8,0.00
2013-3-10,79,64,50,56,22,-5,47,19,1,29.82,29.72,8,1,8,0.00
2013-3-11,80,64,50,55,16,-5,42,12,1,29.76,29.56,2,0,2,0.00
2013-3-12,72,66,58,13,8,2,1,1,1,29.64,29.50,4,1,4,0.39
2013-3-13,81,61,46,44,18,-7,49,18,1,29.79,29.65,5,1,5,0.00
2013-3-14,71,54,43,42,21,-10,51,29,1,29.89,29.78,7,1,7,0.00
2013-3-15,78,54,35,46,16,-16,51,22,1,29.91,29.77,4,0,4,0.00
2013-3-16,85,60,40,49,21,-12,52,22,1,29.81,29.67,4,0,4,0.00
2013-3-17,79,62,44,55,22,-10,50,22,1,29.78,29.62,4,0,4,0.00
2013-3-18,81,70,60,56,20,3,42,12,1,29.70,29.54,7,1,7,0.00
2013-3-19,90,73,62,63,26,5,47,15,1,29.66,29.52,5,1,5,0.00
2013-3-20,75,66,60,15,8,3,1,1,1,29.61,29.42,8,1,8,1.82
2013-3-21,76,59,48,43,16,-6,49,17,1,29.60,29.49,5,1,5,0.00
2013-3-22,80,58,41,56,14,-12,48,15,1,29.65,29.53,4,0,4,0.09
2013-3-23,86,71,61,23,12,4,2,1,1,29.62,29.40,6,1,6,0.25
2013-3-24,82,72,67,20,13,9,1,1,1,29.49,29.25,10,2,10,1.13
2013-3-25,75,66,54,41,25,1,50,22,1,29.66,29.34,5,2,5,0.00
2013-3-26,64,54,45,36,30,26,54,42,25,29.86,29.65,7,2,7,0.00
2013-3-27,71,52,40,36,24,-10,51,36,1,29.93,29.82,6,1,6,0.00
2013-3-28,77,54,35,43,14,-16,50,20,1,29.92,29.80,3,0,3,0.00
2013-3-29,81,58,39,44,18,-13,50,21,1,29.95,29.82,4,0,4,0.00
2013-3-30,83,62,42,52,25,-11,49,24,1,29.89,29.74,5,0,5,0.00
2013-3-31,85,68,55,57,28,0,48,23,1,29.81,29.62,6,1,6,0.00